Regional Weather Roundup
Issued by NWS Cleveland, OH

Home | Current Version | Previous Version | Graphics & Text | Print | Product List | Glossary On
Versions: 1 2 3 4 5 6 7 8 9 10 11 12 13 14 15 16 17 18 19 20 21 22 23 24 25 26 27 28 29 30 31 32 33 34 35 36 37 38 39 40 41 42 43 44 45 46 47 48 49 50
000
ASUS41 KCLE 250900
RWRCLE
OHIO REGIONAL WEATHER ROUNDUP
NATIONAL WEATHER SERVICE WILMINGTON, OH
500 AM EDT SUN JUN 25 2017

NOTE: "FAIR" INDICATES FEW OR NO CLOUDS BELOW 12,000 FEET WITH NO
SIGNIFICANT WEATHER AND/OR OBSTRUCTIONS TO VISIBILITY.

OHZ001>008-015>018-024>027-034-035-043-044-251000-
   NORTHWEST OHIO

CITY           SKY/WX    TMP DP  RH WIND       PRES   REMARKS
DEFIANCE       FAIR      52  48  86 SW5       30.03S
FINDLAY        FAIR      57  49  74 W6        30.03S
TOLEDO EXPRESS FAIR      56  51  84 SW7       30.00F
TOLEDO EXEC    FAIR      57  52  83 SW5       30.01F
LIMA           FAIR      56  49  77 SW6       30.05S
$$

OHZ009>014-019>023-028>033-038-089-251000-
   NORTHEAST OHIO

CITY           SKY/WX    TMP DP  RH WIND       PRES   REMARKS
CLE-HOPKINS    FAIR      62  53  72 SW7       30.03S
CLE-LAKEFRONT  MOCLDY    64  51  62 SW9       30.00R
CUY CO. ARPT   NOT AVBL
LORAIN-ELYRIA  MOCLDY    58  49  72 SW6       30.02S
ASHTABULA      FAIR      57  55  93 CALM      30.01R
AKRON-CANTON   FAIR      60  52  74 W6        30.03S
WOOSTER        NOT AVBL
MANSFIELD      FAIR      57  54  89 SW5       30.05R
YOUNGSTOWN     MOCLDY    56  54  93 CALM      30.02R
$$

OHZ042-051>053-060>062-070>072-077>081-251000-
  SOUTHWEST OHIO

CITY           SKY/WX    TMP DP  RH WIND       PRES   REMARKS
CINC-COVINGTON FAIR      52  51  97 S5        30.11R
CINC-LUNKEN    FAIR      55  54  96 CALM      30.11S
HAMILTON       FAIR      52  52 100 CALM      30.11S
DAYTON         NOT AVBL
WRIGHT-PAT AFB CLEAR     56  49  76 S3        30.08S
DAYTON GENERAL FAIR      58  48  69 CALM      30.09S
WILMINGTON     FAIR      56  51  84 W5        30.09S
$$

OHZ036-037-039>041-045>050-054>059-063>069-073>076-082>088-251000-
  CENTRAL AND SOUTHEAST OHIO

CITY           SKY/WX    TMP DP  RH WIND       PRES   REMARKS
COLUMBUS       FAIR      59  50  72 W7        30.06S
OSU AIRPORT    FAIR      56  50  80 W6        30.06S
BOLTON FIELD   NOT AVBL
RICKENBACK AFB NOT AVBL
NEWARK         FAIR      57  51  80 CALM      30.06R
MARION         FAIR      58  50  75 SW6       30.05S
LANCASTER      FAIR      54  52  93 CALM      30.07S
ZANESVILLE     FAIR      59  53  80 SW3       30.06R
NEW PHILLY     FAIR      57  56  96 CALM      30.05R
$$



USA.gov is the U.S. government's official web portal to all federal, state and local government web resources and services.